Theta_e
318 313 307 310 319 319 322 324 323 322 328 326 327 334 335 344 347 349 350 352 352 357 356 354 353 352 352 352 352 352 354 355
312 309 315 317 316 323 323 325 327 325 324 331 339 337 338 345 344 344 348 351 353 356 355 352 351 350 351 350 350 351 352 351
306 310 317 318 318 323 320 323 324 326 324 326 334 338 338 340 339 341 345 348 350 355 353 350 346 345 347 347 347 347 347 346
307 310 317 319 324 324 324 325 327 325 325 326 336 336 337 339 337 341 343 345 346 351 350 348 346 346 346 346 348 347 346 347
310 311 315 317 324 322 323 323 325 329 322 325 332 337 336 335 339 340 342 343 342 339 340 346 347 347 347 346 345 344 343 342
309 310 313 322 320 323 325 324 333 332 321 320 329 336 335 332 329 334 340 339 333 335 334 333 335 347 346 345 344 339 336 335
309 312 316 323 321 330 334 329 331 331 329 332 336 336 331 326 325 326 330 330 332 330 326 328 333 339 344 344 340 335 329 331
317 318 319 324 325 327 327 327 327 329 334 336 335 333 326 322 320 323 324 326 330 330 328 327 334 328 326 328 327 324 320 318
319 319 322 323 322 321 325 321 326 326 329 333 332 330 328 323 323 324 326 328 330 328 328 327 327 327 325 325 323 323 319 316
319 320 322 321 324 320 324 325 331 332 333 333 331 328 323 322 323 324 325 326 328 329 328 328 327 326 323 321 320 320 316 314
319 319 320 325 323 322 323 328 332 332 332 326 327 322 322 323 323 324 325 327 327 328 329 328 325 326 321 319 319 316 315 314
318 318 323 323 322 323 324 328 328 328 325 321 322 324 325 326 326 326 327 326 327 327 326 323 323 322 320 317 315 315 312 311
318 317 318 322 318 320 326 327 325 326 321 321 323 325 326 327 326 326 327 326 324 325 324 320 319 321 319 316 314 313 311 310
315 317 320 317 311 322 326 325 322 322 320 320 321 325 327 328 329 328 327 324 322 323 320 319 315 315 315 314 312 312 311 309
314 319 316 316 315 321 325 323 320 319 319 320 321 324 327 329 329 328 326 323 320 319 317 317 313 313 314 312 312 311 309 308
309 314 316 313 313 320 323 321 318 317 318 320 321 323 327 329 328 325 325 323 320 318 315 314 312 311 312 311 311 309 308 307
312 318 313 311 312 318 322 322 318 318 318 319 320 326 327 328 327 325 323 320 318 315 313 312 310 308 308 307 308 308 307 307
313 317 313 311 311 318 321 321 321 319 319 320 321 324 325 325 325 323 321 319 316 314 313 311 312 310 311 310 308 308 307 306
308 314 314 311 309 313 321 323 323 323 323 322 322 321 322 324 323 323 319 317 315 314 312 310 312 310 308 308 305 303 304 304
309 305 303 313 295 304 318 319 321 323 321 321 323 323 323 323 322 319 318 317 314 312 311 311 309 308 305 303 301 302 302 304
Wind_Speed
6 5 2 6 6 17 14 20 6 6 10 8 13 12 7 16 17 15 11 11 13 18 18 19 19 19 18 18 17 16 15 15
7 7 9 8 5 14 15 10 12 16 11 8 10 4 10 22 19 16 12 12 15 18 18 20 19 19 18 19 18 17 17 14
2 8 3 6 11 15 16 14 17 13 14 13 12 7 12 20 17 18 11 11 13 18 18 18 18 18 17 16 15 15 15 15
7 21 10 6 10 15 11 16 19 21 17 9 10 5 5 17 18 17 15 10 12 18 18 17 16 16 16 16 16 17 19 19
11 8 18 9 14 17 10 13 14 17 13 6 10 8 6 16 16 16 14 11 7 8 14 17 14 13 13 14 17 19 21 23
5 7 8 9 6 6 14 14 20 18 7 9 6 8 12 17 16 13 11 10 8 6 5 7 7 12 13 14 16 18 19 22
7 9 13 12 13 19 15 16 9 11 19 13 14 11 11 11 11 12 12 7 6 6 6 6 7 8 9 14 17 17 14 18
1 14 18 18 19 13 11 15 17 17 14 13 16 14 14 11 8 11 10 9 9 8 8 7 7 6 7 8 5 7 7 8
13 11 15 11 13 3 17 12 16 18 17 16 12 15 14 11 13 13 11 7 8 7 7 7 6 4 3 3 4 5 7 6
9 9 17 10 11 6 6 12 19 18 18 19 17 10 12 13 13 12 11 9 9 8 7 7 4 4 4 4 4 5 6 8
10 12 12 15 13 8 11 15 17 17 14 12 13 11 13 11 11 12 12 11 9 8 6 6 6 4 4 4 4 6 8 9
9 7 15 17 11 8 9 12 12 11 8 13 17 16 15 14 12 13 12 8 8 7 7 7 5 5 3 4 5 9 8 6
11 8 5 12 8 10 11 13 10 10 13 14 15 15 14 13 12 12 8 9 7 8 7 7 6 5 4 5 6 7 7 7
6 8 7 11 7 12 13 14 12 10 14 13 11 16 16 14 12 9 9 10 11 10 9 7 7 5 4 5 5 8 6 5
10 2 8 3 4 10 12 14 12 10 13 14 12 16 16 16 14 13 11 10 9 7 8 7 8 6 5 7 8 6 5 5
5 11 5 15 16 7 13 15 15 13 14 14 16 14 15 17 16 14 12 10 9 6 8 7 5 5 4 5 7 5 4 4
7 14 2 12 20 11 19 13 15 15 15 15 16 17 17 17 15 14 12 10 8 8 7 5 4 3 3 3 4 4 4 5
15 14 12 21 21 14 21 24 18 18 17 17 17 17 16 15 14 10 12 11 9 8 7 4 2 2 2 4 4 4 3 4
14 18 12 6 17 18 22 10 6 9 11 21 23 20 17 16 13 12 11 11 9 8 7 5 6 4 4 4 3 5 3 2
12 7 10 19 8 3 19 17 11 9 17 20 19 17 15 17 12 12 11 11 9 8 7 6 7 6 7 3 2 1 1 1
Wind_Direction
73 110 255 238 219 107 112 101 279 64 35 71 83 80 106 127 124 113 99 88 81 78 75 73 70 68 65 62 58 54 52 52
120 164 240 210 217 129 122 127 151 122 61 47 81 76 123 124 124 112 106 97 90 85 82 78 75 73 70 67 64 58 56 53
234 207 156 206 139 109 108 111 101 107 101 95 82 75 86 120 120 113 113 105 103 100 95 89 81 76 73 70 64 53 44 38
333 296 125 184 108 102 140 116 112 106 110 107 118 113 126 136 119 121 121 122 114 112 109 103 97 85 70 56 45 41 32 23
254 271 129 162 138 143 141 137 115 126 108 126 140 168 99 101 115 116 121 118 112 113 113 109 105 99 94 79 58 41 26 22
215 185 120 126 97 131 127 123 128 135 133 144 144 111 98 94 97 105 126 120 115 139 130 127 120 115 106 89 74 58 37 24
237 142 121 105 96 72 74 78 83 91 130 143 133 120 98 98 108 107 106 112 144 173 156 144 131 133 100 70 66 66 48 40
336 123 127 129 111 112 102 94 95 107 114 133 145 145 135 133 128 108 100 78 67 53 33 50 82 78 58 56 73 80 58 42
313 134 109 116 110 86 122 135 142 142 154 163 161 162 148 145 129 119 114 102 90 80 67 52 49 59 55 53 56 84 60 56
136 112 113 124 137 85 131 154 147 158 177 170 170 158 129 123 113 112 113 120 91 69 69 59 52 58 74 57 51 77 64 53
109 98 108 119 114 118 115 129 146 170 183 139 140 100 86 100 98 100 101 104 100 85 70 68 51 41 67 55 67 74 60 50
98 104 103 108 122 114 136 129 143 156 157 116 109 105 95 85 80 71 69 60 100 86 73 70 42 28 91 60 76 82 66 54
37 17 113 126 131 146 143 141 157 182 130 116 117 110 106 110 101 93 78 65 63 84 54 66 37 27 87 72 76 83 77 56
318 41 348 9 192 155 156 157 176 162 136 128 121 115 110 104 95 95 92 73 58 43 28 36 30 34 67 75 75 79 78 62
338 267 20 79 239 180 173 169 173 166 151 146 130 127 125 116 110 98 93 90 77 48 26 9 30 34 65 73 77 79 73 63
317 267 309 274 249 220 189 183 177 170 158 153 139 142 132 117 110 102 91 88 78 56 30 15 38 27 40 58 91 83 79 67
181 255 342 240 246 243 194 200 183 177 169 159 147 130 125 117 114 113 107 96 94 72 35 32 38 34 17 50 89 83 80 59
169 200 184 260 244 220 194 204 187 180 175 151 142 136 130 125 122 121 119 116 102 98 67 27 16 42 28 106 66 108 98 55
177 206 210 323 259 205 199 199 230 185 169 154 154 143 140 130 132 132 126 120 114 115 95 55 42 42 20 73 38 37 21 34
260 151 205 203 261 254 167 179 201 248 154 155 148 142 141 139 137 130 128 119 115 103 113 83 59 55 60 67 93 255 249 251